Location: Pouilly
(47.2624°N, 4.5558°E)
Time: 17:42:45
(UTC+00:00)

Cosmos 2221 - Pass Details

Date: 07 June 2020
Orbit: 594 x 615 km, 82.5° (Epoch: 08 July)

Event Time Altitude Azimuth Distance (km) Brightness Sun altitude
Rises 02:06:51 0° 344° (NNW) 2,882 6.6 -12.6°
Reaches altitude 10° 02:09:10 10° 337° (NNW) 1,976 5.6 -12.4°
Maximum altitude 02:13:15 40° 268° (W) 911 3.1 -12.0°
Enters shadow 02:16:17 17° 205° (SSW) 1,586 4.0 -11.7°
